User: anonymous
Location: Caltech
(34.1382°N, 118.1253°W)
Time: 15:11:45
(UTC-07:00)
Language:

Gbstr 26 Del rocket - Orbit

View from above orbital plane
View from above orbital plane
View from above satellite
View from above satellite

Ground track
Ground track

The orbit data is extracted from the following two-line orbital elements,

1 25876U 99041E   14104.78008100  .00001834  00000-0  35827-3 0  3498
2 25876 051.7673 205.7604 0541375 252.8695 227.3771 14.01841902751827
Epoch (UTC): 14 April 2014 18:43:18
Eccentricity: 0.0541375
inclination: 51.7673°
perigee height: 494 km
apogee height: 1281 km
right ascension of ascending node: 205.7604°
argument of perigee: 252.8695°
revolutions per day: 14.01841902
mean anomaly at epoch: 227.3771°
orbit number at epoch: 75182

The dashed part of the orbit path shows where the satellite is in the earth's shadow,  

DLR